Location: Boiro
(42.6475°N, 8.8834°W)
Time: 02:36:59
(UTC+01:00)

Vanguard 2 - Pass Details

Date: 09 December 2021
Orbit: 553 x 2936 km, 32.9° (Epoch: 20 January)

Event Time Altitude Azimuth Distance (km) Brightness Sun altitude
Rises 14:18:35 0° 242° (WSW) 2,714 10.9 23.5°
Reaches altitude 10° 14:20:58 10° 227° (SW) 1,862 10.6 23.4°
Maximum altitude 14:24:19 24° 171° (S) 1,308 10.4 23.2°
Drops below altitude 10° 14:28:23 10° 118° (ESE) 2,311 10.2 23.0°
Sets 14:31:44 0° 105° (ESE) 3,562 11.0 22.9°
